GLO1413 SBBR-SBSP

Flight info

Callsign GLO1413
Flight time 1h 23m
Altitude 37000
Route GEBEP UZ2 DEVIR/N0449F390 UZ2 ENTIT
Aircraft B737/M-SDE2E3FGHIRWXY/LB1

Departure

Time 2026-05-06 21:13
Airport Presidente Juscelino Kubitschek International Airport (SBBR)

Arrival

Time 2026-05-06 22:37
Airport Congonhas–Deputado Freitas Nobre Airport (SBSP)
Time Latitude Longitude Altitude Speed Heading
2026-05-06 20:57 -15.86848 -47.91829 3476 ft 0 kts 356°
2026-05-06 21:05 -15.86849 -47.91829 3476 ft 2 kts 356°
2026-05-06 21:05 -15.86871 -47.91828 3476 ft 4 kts 356°
2026-05-06 21:05 -15.86893 -47.91826 3476 ft 4 kts
2026-05-06 21:06 -15.86910 -47.91837 3473 ft 4 kts 77°
2026-05-06 21:06 -15.86913 -47.91863 3474 ft 4 kts 86°
2026-05-06 21:06 -15.86913 -47.91864 3476 ft 4 kts 86°
2026-05-06 21:06 -15.86912 -47.91838 3476 ft 1 kts 86°
2026-05-06 21:07 -15.86912 -47.91837 3476 ft 0 kts 86°
2026-05-06 21:09 -15.86910 -47.91808 3476 ft 7 kts 86°
2026-05-06 21:09 -15.86905 -47.91744 3473 ft 10 kts 85°
2026-05-06 21:09 -15.86849 -47.91700 3476 ft 13 kts 359°
2026-05-06 21:09 -15.86748 -47.91703 3476 ft 15 kts 355°
2026-05-06 21:10 -15.86639 -47.91723 3474 ft 16 kts 329°
2026-05-06 21:10 -15.86614 -47.91830 3476 ft 16 kts 265°
2026-05-06 21:10 -15.86621 -47.91947 3473 ft 16 kts 268°
2026-05-06 21:10 -15.86629 -47.92066 3473 ft 17 kts 265°
2026-05-06 21:11 -15.86619 -47.92196 3472 ft 20 kts 291°
2026-05-06 21:11 -15.86548 -47.92329 3471 ft 21 kts 302°
2026-05-06 21:11 -15.86533 -47.92475 3473 ft 21 kts 265°
2026-05-06 21:11 -15.86541 -47.92628 3467 ft 23 kts 267°
2026-05-06 21:12 -15.86496 -47.92767 3459 ft 23 kts 351°
2026-05-06 21:12 -15.86366 -47.92710 3459 ft 22 kts 47°
2026-05-06 21:12 -15.86350 -47.92675 3459 ft 3 kts 84°
2026-05-06 21:12 -15.86348 -47.92657 3458 ft 3 kts 84°
2026-05-06 21:13 -15.86338 -47.92489 3462 ft 61 kts 86°
2026-05-06 21:13 -15.86293 -47.91770 3463 ft 136 kts 85°
2026-05-06 21:13 -15.86224 -47.90576 3591 ft 189 kts 87°
2026-05-06 21:13 -15.86199 -47.89138 4312 ft 202 kts 91°
2026-05-06 21:14 -15.86511 -47.87666 4862 ft 225 kts 119°
2026-05-06 21:14 -15.87709 -47.86504 5340 ft 246 kts 153°
2026-05-06 21:14 -15.89431 -47.85999 5820 ft 270 kts 170°
2026-05-06 21:14 -15.91347 -47.85803 6623 ft 280 kts 173°
2026-05-06 21:15 -15.93294 -47.85658 7711 ft 281 kts 174°
2026-05-06 21:15 -15.95270 -47.85508 8553 ft 288 kts 173°
2026-05-06 21:15 -15.97283 -47.85340 8916 ft 293 kts 173°
2026-05-06 21:15 -15.99314 -47.85159 8984 ft 294 kts 173°
2026-05-06 21:16 -16.01354 -47.84967 8983 ft 295 kts 172°
2026-05-06 21:16 -16.03391 -47.84770 8986 ft 293 kts 173°
2026-05-06 21:16 -16.05419 -47.84572 8985 ft 292 kts 172°
2026-05-06 21:16 -16.07442 -47.84392 8999 ft 292 kts 175°
2026-05-06 21:17 -16.09504 -47.84386 9356 ft 300 kts 179°
2026-05-06 21:17 -16.11588 -47.84431 10380 ft 300 kts 179°
2026-05-06 21:17 -16.13726 -47.84469 10997 ft 318 kts 179°
2026-05-06 21:17 -16.16036 -47.84360 11171 ft 345 kts 167°
2026-05-06 21:18 -16.18406 -47.83697 11647 ft 359 kts 161°
2026-05-06 21:18 -16.20811 -47.82903 12385 ft 365 kts 160°
2026-05-06 21:18 -16.23234 -47.82081 13224 ft 367 kts 160°
2026-05-06 21:18 -16.25670 -47.81259 14029 ft 370 kts 160°
2026-05-06 21:19 -16.28134 -47.80436 14814 ft 373 kts 161°
2026-05-06 21:19 -16.30617 -47.79617 15577 ft 376 kts 161°
2026-05-06 21:19 -16.33128 -47.78798 16315 ft 379 kts 161°
2026-05-06 21:19 -16.35656 -47.77979 17028 ft 382 kts 162°
2026-05-06 21:20 -16.38205 -47.77155 17722 ft 385 kts 162°
2026-05-06 21:20 -16.40737 -47.76339 18369 ft 388 kts 162°
2026-05-06 21:20 -16.43360 -47.75494 19014 ft 390 kts 162°
2026-05-06 21:20 -16.45923 -47.74668 19643 ft 392 kts 162°
2026-05-06 21:21 -16.48537 -47.73826 20276 ft 394 kts 162°
2026-05-06 21:21 -16.51163 -47.72981 20887 ft 396 kts 163°
2026-05-06 21:21 -16.53808 -47.72128 21469 ft 398 kts 163°
2026-05-06 21:21 -16.56466 -47.71271 22023 ft 401 kts 163°
2026-05-06 21:22 -16.59134 -47.70409 22551 ft 403 kts 163°
2026-05-06 21:22 -16.61821 -47.69542 23062 ft 405 kts 163°
2026-05-06 21:22 -16.64515 -47.68674 23564 ft 407 kts 163°
2026-05-06 21:22 -16.67227 -47.67798 24054 ft 409 kts 163°
2026-05-06 21:23 -16.69949 -47.66919 24523 ft 410 kts 163°
2026-05-06 21:23 -16.72682 -47.66036 24973 ft 412 kts 163°
2026-05-06 21:23 -16.75430 -47.65148 25442 ft 414 kts 164°
2026-05-06 21:23 -16.78181 -47.64259 25882 ft 415 kts 164°
2026-05-06 21:24 -16.80941 -47.63367 26333 ft 416 kts 164°
2026-05-06 21:24 -16.83707 -47.62472 26758 ft 417 kts 164°
2026-05-06 21:24 -16.86483 -47.61574 27158 ft 419 kts 164°
2026-05-06 21:24 -16.89273 -47.60670 27571 ft 420 kts 165°
2026-05-06 21:25 -16.92069 -47.59765 28010 ft 421 kts 165°
2026-05-06 21:25 -16.94865 -47.58860 28405 ft 421 kts 165°
2026-05-06 21:25 -16.97668 -47.57952 28758 ft 423 kts 165°
2026-05-06 21:25 -17.00487 -47.57038 29088 ft 425 kts 165°
2026-05-06 21:26 -17.03311 -47.56123 29447 ft 426 kts 165°
2026-05-06 21:26 -17.06138 -47.55206 29793 ft 426 kts 165°
2026-05-06 21:26 -17.08973 -47.54286 30146 ft 426 kts 165°
2026-05-06 21:26 -17.11800 -47.53369 30578 ft 425 kts 165°
2026-05-06 21:27 -17.14609 -47.52457 31098 ft 421 kts 166°
2026-05-06 21:27 -17.17400 -47.51552 31613 ft 418 kts 166°
2026-05-06 21:27 -17.20171 -47.50651 32066 ft 416 kts 166°
2026-05-06 21:27 -17.22933 -47.49752 32539 ft 414 kts 166°
2026-05-06 21:28 -17.25669 -47.48862 33047 ft 411 kts 166°
2026-05-06 21:28 -17.28388 -47.47977 33542 ft 408 kts 166°
2026-05-06 21:28 -17.31091 -47.47099 33977 ft 405 kts 166°
2026-05-06 21:28 -17.33744 -47.46236 34390 ft 404 kts 166°
2026-05-06 21:29 -17.36424 -47.45364 34704 ft 404 kts 166°
2026-05-06 21:29 -17.39116 -47.44489 34924 ft 406 kts 167°
2026-05-06 21:29 -17.41817 -47.43609 35192 ft 407 kts 167°
2026-05-06 21:29 -17.44522 -47.42728 35517 ft 406 kts 167°
2026-05-06 21:30 -17.47220 -47.41848 35828 ft 405 kts 167°
2026-05-06 21:30 -17.49929 -47.41043 36084 ft 403 kts 172°
2026-05-06 21:30 -17.52680 -47.40529 36348 ft 402 kts 175°
2026-05-06 21:30 -17.55456 -47.40112 36519 ft 403 kts 176°
2026-05-06 21:31 -17.58238 -47.39721 36775 ft 403 kts 176°
2026-05-06 21:31 -17.61005 -47.39330 37110 ft 401 kts 176°
2026-05-06 21:31 -17.63770 -47.38927 37167 ft 402 kts 176°
2026-05-06 21:32 -17.69261 -47.38094 37183 ft 395 kts 176°
2026-05-06 21:32 -17.77383 -47.36824 37198 ft 392 kts 175°
2026-05-06 21:33 -17.82775 -47.35974 37195 ft 391 kts 175°
2026-05-06 21:33 -17.88158 -47.35125 37194 ft 391 kts 175°
2026-05-06 21:34 -17.93540 -47.34276 37184 ft 391 kts 176°
2026-05-06 21:34 -17.98932 -47.33427 37200 ft 392 kts 175°
2026-05-06 21:35 -18.04306 -47.32578 37204 ft 394 kts 175°
2026-05-06 21:35 -18.09732 -47.31719 37181 ft 395 kts 175°
2026-05-06 21:36 -18.15164 -47.30862 37198 ft 395 kts 175°
2026-05-06 21:36 -18.20601 -47.30001 37197 ft 395 kts 175°
2026-05-06 21:37 -18.26047 -47.29140 37183 ft 395 kts 175°
2026-05-06 21:37 -18.31482 -47.28278 37202 ft 395 kts 175°
2026-05-06 21:38 -18.36915 -47.27416 37192 ft 394 kts 175°
2026-05-06 21:38 -18.42336 -47.26556 37195 ft 394 kts 175°
2026-05-06 21:39 -18.47750 -47.25698 37196 ft 393 kts 176°
2026-05-06 21:39 -18.53123 -47.24845 37193 ft 392 kts 175°
2026-05-06 21:40 -18.58545 -47.23983 37198 ft 391 kts 175°
2026-05-06 21:40 -18.63885 -47.23133 37186 ft 390 kts 175°
2026-05-06 21:41 -18.69254 -47.22279 37193 ft 390 kts 175°
2026-05-06 21:41 -18.74616 -47.21426 37196 ft 390 kts 175°
2026-05-06 21:42 -18.79977 -47.20572 37194 ft 390 kts 175°
2026-05-06 21:42 -18.85349 -47.19716 37192 ft 390 kts 175°
2026-05-06 21:43 -18.90712 -47.18861 37196 ft 390 kts 175°
2026-05-06 21:43 -18.96080 -47.18005 37197 ft 390 kts 175°
2026-05-06 21:44 -19.00543 -47.17293 37183 ft 391 kts 175°
2026-05-06 21:44 -19.05911 -47.16434 37197 ft 390 kts 175°
2026-05-06 21:45 -19.11285 -47.15575 37197 ft 390 kts 175°
2026-05-06 21:45 -19.16647 -47.14723 37206 ft 390 kts 176°
2026-05-06 21:46 -19.22021 -47.13955 37201 ft 389 kts 176°
2026-05-06 21:46 -19.27382 -47.13207 37203 ft 389 kts 176°
2026-05-06 21:47 -19.32746 -47.12454 37204 ft 389 kts 176°
2026-05-06 21:47 -19.38112 -47.11695 37203 ft 389 kts 176°
2026-05-06 21:48 -19.43473 -47.10934 37210 ft 388 kts 176°
2026-05-06 21:48 -19.48790 -47.10179 37207 ft 388 kts 176°
2026-05-06 21:49 -19.54144 -47.09417 37209 ft 388 kts 176°
2026-05-06 21:49 -19.59501 -47.08654 37216 ft 388 kts 176°
2026-05-06 21:50 -19.64847 -47.07893 37215 ft 388 kts 176°
2026-05-06 21:50 -19.70200 -47.07130 37215 ft 388 kts 176°
2026-05-06 21:51 -19.75554 -47.06367 37207 ft 388 kts 176°
2026-05-06 21:51 -19.80912 -47.05603 37206 ft 388 kts 176°
2026-05-06 21:52 -19.86266 -47.04839 37203 ft 388 kts 176°
2026-05-06 21:52 -19.91616 -47.04074 37201 ft 388 kts 176°
2026-05-06 21:53 -19.96963 -47.03310 37203 ft 388 kts 176°
2026-05-06 21:53 -20.02310 -47.02545 37194 ft 387 kts 176°
2026-05-06 21:54 -20.07647 -47.01782 37187 ft 387 kts 176°
2026-05-06 21:54 -20.12982 -47.01017 37182 ft 387 kts 176°
2026-05-06 21:55 -20.18314 -47.00253 37195 ft 387 kts 176°
2026-05-06 21:55 -20.23646 -46.99488 37186 ft 386 kts 176°
2026-05-06 21:56 -20.28970 -46.98724 37177 ft 386 kts 176°
2026-05-06 21:56 -20.34287 -46.97959 37172 ft 385 kts 176°
2026-05-06 21:57 -20.39598 -46.97195 37164 ft 385 kts 176°
2026-05-06 21:57 -20.44913 -46.96431 37165 ft 385 kts 176°
2026-05-06 21:58 -20.50222 -46.95668 37167 ft 385 kts 176°
2026-05-06 21:58 -20.55528 -46.94903 37160 ft 385 kts 176°
2026-05-06 21:59 -20.60804 -46.94144 37161 ft 385 kts 176°
2026-05-06 21:59 -20.66151 -46.93371 37158 ft 386 kts 176°
2026-05-06 22:00 -20.71441 -46.92606 37145 ft 386 kts 176°
2026-05-06 22:00 -20.76761 -46.91838 37144 ft 386 kts 176°
2026-05-06 22:01 -20.82079 -46.91044 37153 ft 386 kts 176°
2026-05-06 22:01 -20.87401 -46.90204 37142 ft 387 kts 176°
2026-05-06 22:02 -20.92726 -46.89365 37149 ft 387 kts 176°
2026-05-06 22:02 -20.98057 -46.88529 37154 ft 387 kts 176°
2026-05-06 22:03 -21.03386 -46.87695 37152 ft 387 kts 176°
2026-05-06 22:03 -21.08703 -46.86861 37156 ft 386 kts 176°
2026-05-06 22:04 -21.14025 -46.86027 37156 ft 386 kts 176°
2026-05-06 22:04 -21.19342 -46.85191 37151 ft 386 kts 176°
2026-05-06 22:05 -21.24667 -46.84355 37151 ft 386 kts 176°
2026-05-06 22:05 -21.29984 -46.83521 37150 ft 386 kts 176°
2026-05-06 22:06 -21.35297 -46.82685 37152 ft 386 kts 176°
2026-05-06 22:06 -21.40604 -46.81849 37159 ft 385 kts 176°
2026-05-06 22:07 -21.45909 -46.81013 37150 ft 385 kts 176°
2026-05-06 22:07 -21.51169 -46.80185 37155 ft 384 kts 176°
2026-05-06 22:08 -21.56458 -46.79351 37157 ft 384 kts 176°
2026-05-06 22:08 -21.61750 -46.78515 37151 ft 384 kts 176°
2026-05-06 22:09 -21.67039 -46.77679 37151 ft 384 kts 176°
2026-05-06 22:09 -21.72324 -46.76844 37154 ft 384 kts 176°
2026-05-06 22:10 -21.77611 -46.76007 37171 ft 384 kts 176°
2026-05-06 22:10 -21.82904 -46.75169 37167 ft 385 kts 176°
2026-05-06 22:11 -21.88210 -46.74330 37169 ft 386 kts 176°
2026-05-06 22:11 -21.93519 -46.73488 36730 ft 394 kts 176°
2026-05-06 22:12 -21.96221 -46.73060 36159 ft 393 kts 176°
2026-05-06 22:12 -21.98957 -46.72625 35464 ft 392 kts 175°
2026-05-06 22:12 -22.01621 -46.72201 34845 ft 391 kts 175°
2026-05-06 22:12 -22.04288 -46.71777 34317 ft 386 kts 175°
2026-05-06 22:13 -22.06935 -46.71355 33795 ft 383 kts 175°
2026-05-06 22:13 -22.09560 -46.70937 33277 ft 380 kts 175°
2026-05-06 22:13 -22.12168 -46.70522 32760 ft 378 kts 175°
2026-05-06 22:13 -22.14759 -46.70109 32251 ft 375 kts 175°
2026-05-06 22:14 -22.17336 -46.69700 31751 ft 373 kts 175°
2026-05-06 22:14 -22.19898 -46.69292 31262 ft 371 kts 175°
2026-05-06 22:14 -22.22451 -46.68886 30754 ft 370 kts 174°
2026-05-06 22:14 -22.24988 -46.68482 30269 ft 368 kts 174°
2026-05-06 22:15 -22.27521 -46.68079 29774 ft 367 kts 174°
2026-05-06 22:15 -22.30038 -46.67678 29273 ft 365 kts 174°
2026-05-06 22:15 -22.32546 -46.67277 28755 ft 363 kts 174°
2026-05-06 22:15 -22.35041 -46.66879 28249 ft 362 kts 174°
2026-05-06 22:16 -22.37522 -46.66483 27727 ft 360 kts 174°
2026-05-06 22:16 -22.40002 -46.66375 27191 ft 356 kts 190°
2026-05-06 22:16 -22.42368 -46.67086 26679 ft 353 kts 203°
2026-05-06 22:16 -22.44484 -46.68448 26110 ft 355 kts 218°
2026-05-06 22:17 -22.46326 -46.70225 25596 ft 355 kts 222°
2026-05-06 22:17 -22.48098 -46.72083 25104 ft 354 kts 223°
2026-05-06 22:17 -22.49856 -46.73929 24621 ft 352 kts 222°
2026-05-06 22:17 -22.51625 -46.75746 24141 ft 350 kts 221°
2026-05-06 22:18 -22.53402 -46.77545 23661 ft 349 kts 221°
2026-05-06 22:18 -22.55173 -46.79330 23195 ft 347 kts 221°
2026-05-06 22:18 -22.56915 -46.81088 23041 ft 339 kts 221°
2026-05-06 22:18 -22.58657 -46.82848 22851 ft 349 kts 221°
2026-05-06 22:19 -22.60468 -46.84679 22678 ft 362 kts 221°
2026-05-06 22:19 -22.62323 -46.86557 22476 ft 367 kts 221°
2026-05-06 22:19 -22.64181 -46.88439 22280 ft 365 kts 221°
2026-05-06 22:19 -22.66023 -46.90305 22086 ft 361 kts 221°
2026-05-06 22:20 -22.67875 -46.92135 21894 ft 358 kts 217°
2026-05-06 22:20 -22.69872 -46.93664 21722 ft 355 kts 211°
2026-05-06 22:20 -22.71964 -46.95055 21545 ft 353 kts 210°
2026-05-06 22:20 -22.74067 -46.96414 21370 ft 351 kts 210°
2026-05-06 22:21 -22.76159 -46.97782 21194 ft 351 kts 210°
2026-05-06 22:21 -22.78242 -46.99168 21018 ft 352 kts 210°
2026-05-06 22:21 -22.80325 -47.00573 20840 ft 353 kts 211°
2026-05-06 22:21 -22.82408 -47.01989 20660 ft 354 kts 211°
2026-05-06 22:22 -22.84493 -47.03411 20478 ft 355 kts 211°
2026-05-06 22:22 -22.86580 -47.04837 20301 ft 355 kts 211°
2026-05-06 22:22 -22.88675 -47.06268 20039 ft 357 kts 211°
2026-05-06 22:22 -22.90803 -47.07710 19513 ft 363 kts 211°
2026-05-06 22:23 -22.92937 -47.09151 19007 ft 359 kts 210°
2026-05-06 22:23 -22.95047 -47.10577 18511 ft 356 kts 210°
2026-05-06 22:23 -22.97135 -47.11990 18008 ft 352 kts 210°
2026-05-06 22:23 -22.99207 -47.13393 17526 ft 349 kts 210°
2026-05-06 22:24 -23.01303 -47.14674 17021 ft 344 kts 199°
2026-05-06 22:24 -23.03623 -47.15185 16561 ft 339 kts 180°
2026-05-06 22:24 -23.05945 -47.14924 16110 ft 334 kts 169°
2026-05-06 22:24 -23.08215 -47.14426 15639 ft 332 kts 167°
2026-05-06 22:25 -23.10459 -47.13895 15168 ft 330 kts 167°
2026-05-06 22:25 -23.12698 -47.13368 14710 ft 327 kts 167°
2026-05-06 22:25 -23.14921 -47.12856 14254 ft 325 kts 167°
2026-05-06 22:25 -23.17126 -47.12359 13794 ft 323 kts 168°
2026-05-06 22:26 -23.19325 -47.11869 13349 ft 322 kts 168°
2026-05-06 22:26 -23.21512 -47.11384 12903 ft 320 kts 168°
2026-05-06 22:26 -23.23694 -47.10904 12461 ft 320 kts 168°
2026-05-06 22:26 -23.25870 -47.10426 12030 ft 319 kts 168°
2026-05-06 22:27 -23.28040 -47.09951 11650 ft 317 kts 168°
2026-05-06 22:27 -23.30194 -47.09479 11268 ft 315 kts 168°
2026-05-06 22:27 -23.32340 -47.09010 10890 ft 313 kts 168°
2026-05-06 22:27 -23.34466 -47.08544 10507 ft 310 kts 168°
2026-05-06 22:28 -23.36561 -47.08084 10141 ft 305 kts 168°
2026-05-06 22:28 -23.38575 -47.07643 10092 ft 290 kts 168°
2026-05-06 22:28 -23.40554 -47.07144 9518 ft 294 kts 158°
2026-05-06 22:28 -23.42233 -47.05944 9139 ft 290 kts 130°
2026-05-06 22:29 -23.43261 -47.04109 8875 ft 281 kts 109°
2026-05-06 22:29 -23.43840 -47.02103 8610 ft 275 kts 105°
2026-05-06 22:29 -23.44343 -47.00103 8346 ft 273 kts 104°
2026-05-06 22:29 -23.44837 -46.98106 8091 ft 273 kts 104°
2026-05-06 22:30 -23.45335 -46.96115 7827 ft 272 kts 104°
2026-05-06 22:30 -23.45838 -46.94134 7577 ft 271 kts 104°
2026-05-06 22:30 -23.46343 -46.92160 7319 ft 270 kts 104°
2026-05-06 22:30 -23.46847 -46.90204 7061 ft 267 kts 104°
2026-05-06 22:31 -23.47348 -46.88265 6811 ft 266 kts 105°
2026-05-06 22:31 -23.47854 -46.86314 6429 ft 269 kts 104°
2026-05-06 22:31 -23.48354 -46.84384 6257 ft 258 kts 104°
2026-05-06 22:31 -23.48825 -46.82564 6153 ft 240 kts 104°
2026-05-06 22:32 -23.49263 -46.80877 6044 ft 223 kts 104°
2026-05-06 22:32 -23.49667 -46.79314 5934 ft 205 kts 104°
2026-05-06 22:32 -23.50039 -46.77879 5809 ft 189 kts 104°
2026-05-06 22:32 -23.50269 -46.76991 5714 ft 178 kts 104°
2026-05-06 22:33 -23.50710 -46.75285 5317 ft 174 kts 105°
2026-05-06 22:33 -23.50927 -46.74450 5111 ft 172 kts 106°
2026-05-06 22:33 -23.51573 -46.73396 4829 ft 165 kts 146°
2026-05-06 22:33 -23.52486 -46.72732 4684 ft 156 kts 144°
2026-05-06 22:34 -23.53377 -46.72081 4584 ft 150 kts 145°
2026-05-06 22:34 -23.54237 -46.71478 4355 ft 143 kts 146°
2026-05-06 22:34 -23.55077 -46.70895 4166 ft 142 kts 146°
2026-05-06 22:34 -23.55907 -46.70322 3986 ft 141 kts 146°
2026-05-06 22:35 -23.56734 -46.69750 3809 ft 140 kts 147°
2026-05-06 22:35 -23.57549 -46.69186 3623 ft 138 kts 148°
2026-05-06 22:35 -23.58360 -46.68625 3452 ft 138 kts 148°
2026-05-06 22:35 -23.59173 -46.68062 3275 ft 139 kts 148°
2026-05-06 22:36 -23.59991 -46.67497 3095 ft 139 kts 148°
2026-05-06 22:36 -23.60795 -46.66941 2889 ft 133 kts 148°
2026-05-06 22:36 -23.61551 -46.66422 2694 ft 127 kts 148°
2026-05-06 22:36 -23.62291 -46.65908 2600 ft 118 kts 147°
2026-05-06 22:37 -23.62690 -46.65630 2605 ft 44 kts 147°
2026-05-06 22:37 -23.62886 -46.65498 2607 ft 8 kts 157°
2026-05-06 22:37 -23.62918 -46.65517 2605 ft 1 kts 240°
2026-05-06 22:37 -23.62928 -46.65545 2603 ft 7 kts 259°
2026-05-06 22:38 -23.62899 -46.65595 2602 ft 9 kts 328°
2026-05-06 22:38 -23.62851 -46.65635 2601 ft 10 kts 300°
2026-05-06 22:38 -23.62802 -46.65709 2600 ft 15 kts 328°
2026-05-06 22:38 -23.62715 -46.65771 2600 ft 12 kts 324°
2026-05-06 22:39 -23.62715 -46.65816 2600 ft 6 kts 238°
2026-05-06 22:39 -23.62716 -46.65818 2600 ft 0 kts 238°